TimeEST,TemperatureF,Dew PointF,Humidity,Sea Level PressureIn,VisibilityMPH,Wind Direction,Wind SpeedMPH,Gust SpeedMPH,PrecipitationIn,Events,Conditions,WindDirDegrees,DateUTC
12:53 AM,18.0,10.9,74,30.29,10.0,Calm,Calm,-,N/A,,Clear,0,2013-02-18 05:53:00
1:53 AM,18.0,10.0,71,30.30,10.0,Calm,Calm,-,N/A,,Clear,0,2013-02-18 06:53:00
2:53 AM,17.1,10.0,74,30.31,10.0,Calm,Calm,-,N/A,,Clear,0,2013-02-18 07:53:00
3:53 AM,19.0,10.0,68,30.31,10.0,SW,3.5,-,N/A,,Clear,220,2013-02-18 08:53:00
4:53 AM,16.0,10.9,81,30.32,10.0,Calm,Calm,-,N/A,,Clear,0,2013-02-18 09:53:00
5:53 AM,15.1,10.0,80,30.36,10.0,Calm,Calm,-,N/A,,Clear,0,2013-02-18 10:53:00
6:53 AM,15.1,10.9,84,30.37,10.0,Calm,Calm,-,N/A,,Clear,0,2013-02-18 11:53:00
7:53 AM,19.0,15.1,85,30.38,10.0,Calm,Calm,-,N/A,,Clear,0,2013-02-18 12:53:00
8:53 AM,26.1,18.0,71,30.39,10.0,Calm,Calm,-,N/A,,Clear,0,2013-02-18 13:53:00
9:53 AM,33.1,17.1,52,30.38,10.0,Calm,Calm,-,N/A,,Clear,0,2013-02-18 14:53:00
10:53 AM,39.0,15.1,38,30.38,10.0,Calm,Calm,-,N/A,,Clear,0,2013-02-18 15:53:00
11:53 AM,45.0,14.0,29,30.35,10.0,Variable,5.8,-,N/A,,Clear,0,2013-02-18 16:53:00
12:53 PM,48.9,16.0,27,30.32,10.0,SW,10.4,-,N/A,,Clear,220,2013-02-18 17:53:00
1:53 PM,52.0,18.0,26,30.28,10.0,SSW,5.8,-,N/A,,Clear,200,2013-02-18 18:53:00
2:53 PM,52.0,18.0,26,30.26,10.0,SSW,9.2,16.1,N/A,,Clear,200,2013-02-18 19:53:00
3:53 PM,53.1,19.0,26,30.25,10.0,SW,15.0,-,N/A,,Clear,230,2013-02-18 20:53:00
4:53 PM,52.0,19.0,27,30.25,10.0,Variable,4.6,-,N/A,,Clear,0,2013-02-18 21:53:00
5:53 PM,48.9,19.9,32,30.25,10.0,South,4.6,-,N/A,,Clear,190,2013-02-18 22:53:00
6:53 PM,46.9,19.9,34,30.26,10.0,Variable,4.6,-,N/A,,Clear,0,2013-02-18 23:53:00
7:53 PM,45.0,19.9,37,30.26,10.0,South,6.9,-,N/A,,Clear,190,2013-02-19 00:53:00
8:53 PM,43.0,19.9,40,30.25,10.0,SSW,4.6,-,N/A,,Clear,200,2013-02-19 01:53:00
9:53 PM,39.9,19.9,45,30.23,10.0,South,4.6,-,N/A,,Clear,190,2013-02-19 02:53:00
10:53 PM,41.0,21.0,45,30.22,10.0,South,6.9,-,N/A,,Clear,190,2013-02-19 03:53:00
11:53 PM,41.0,21.9,47,30.19,10.0,South,6.9,-,N/A,,Clear,190,2013-02-19 04:53:00